Tracking 31011 objects as of 11-Jul-2025
HD Live streaming from Space Station
objects crossing your sky now

CZ-6A DEB

Track CZ-6A DEB now!
10-day predictions


NORAD ID: 54349
Int'l Code: 2022-151CU
Perigee: 727.0 km
Apogee: 884.3 km
Inclination: 98.7 °
Period: 100.8 minutes
Semi major axis: 7176 km
RCS: Unknown
Launch date: November 11, 2022
Source: People's Republic of China (PRC)
Launch site: Taiyaun Space Center, China (TSC)

Note: This is SATELLITE DEBRIS
Your satellite tracking list
Your tracking list is empty




NASA's NSSDC Master Catalog

Two Line Element Set (TLE):
1 54349U 22151CU  25192.50043733  .00000467  00000-0  19325-3 0  9990
2 54349  98.6907 207.7476 0109598  17.0083 343.4726 14.27986600138082
Source of the keplerian elements: AFSPC